Time,TemperatureF,DewpointF,PressureIn,WindDirection,WindDirectionDegrees,WindSpeedMPH,WindSpeedGustMPH,Humidity,HourlyPrecipIn,Conditions,Clouds,dailyrainin,SolarRadiationWatts/m^2,SoftwareType,DateUTC
2013-08-09 00:01:00,73.1,71.1,30.00,West,278,0.0,0.0,93,0.00,,,-99.99,1.0,HOBO +U30 +Weather +,2013-08-09 04:01:00,
2013-08-09 00:11:00,73.0,71.1,30.00,West,278,0.0,0.0,93,0.00,,,-99.99,1.0,HOBO +U30 +Weather +,2013-08-09 04:11:00,
2013-08-09 00:21:00,73.1,71.1,29.99,WNW,284,0.0,0.0,93,0.00,,,-99.99,1.0,HOBO +U30 +Weather +,2013-08-09 04:21:00,
2013-08-09 00:31:00,72.9,71.0,29.99,WNW,289,0.0,0.0,93,0.00,,,-99.99,1.0,HOBO +U30 +Weather +,2013-08-09 04:31:00,
2013-08-09 00:41:00,72.7,70.9,29.99,WNW,292,0.0,0.0,93,0.00,,,-99.99,1.0,HOBO +U30 +Weather +,2013-08-09 04:41:00,
2013-08-09 00:51:00,72.8,70.9,29.98,WNW,300,0.0,0.0,93,0.00,,,-99.99,1.0,HOBO +U30 +Weather +,2013-08-09 04:51:00,
2013-08-09 00:52:00,72.9,71.0,29.99,WNW,282,0.0,0.0,93,0.00,,,-99.99,1.0,HOBO +U30 +Weather +,2013-08-09 04:52:00,
2013-08-09 00:53:00,72.9,71.0,29.98,WNW,292,0.0,0.0,93,0.00,,,-99.99,1.0,HOBO +U30 +Weather +,2013-08-09 04:53:00,
2013-08-09 00:54:00,72.9,71.0,29.98,NW,310,0.0,0.0,93,0.00,,,-99.99,1.0,HOBO +U30 +Weather +,2013-08-09 04:54:00,
2013-08-09 00:55:00,72.8,71.0,29.98,West,277,0.0,0.0,93,0.00,,,-99.99,1.0,HOBO +U30 +Weather +,2013-08-09 04:55:00,
2013-08-09 00:56:00,72.9,71.0,29.99,WNW,285,0.0,0.0,93,0.00,,,-99.99,1.0,HOBO +U30 +Weather +,2013-08-09 04:56:00,
2013-08-09 00:57:00,72.9,71.1,29.98,WNW,289,0.0,0.0,93,0.00,,,-99.99,1.0,HOBO +U30 +Weather +,2013-08-09 04:57:00,
2013-08-09 00:58:00,72.9,71.0,29.98,WNW,288,0.0,0.0,93,0.00,,,-99.99,1.0,HOBO +U30 +Weather +,2013-08-09 04:58:00,
2013-08-09 00:59:00,72.8,71.0,29.99,WNW,291,0.0,0.0,93,0.00,,,-99.99,1.0,HOBO +U30 +Weather +,2013-08-09 04:59:00,
2013-08-09 01:00:00,72.8,71.0,29.98,WNW,289,0.0,0.0,93,0.00,,,-99.99,1.0,HOBO +U30 +Weather +,2013-08-09 05:00:00,
2013-08-09 01:01:00,72.8,71.0,29.98,WNW,284,0.0,0.0,94,0.00,,,-99.99,1.0,HOBO +U30 +Weather +,2013-08-09 05:01:00,
2013-08-09 01:11:00,72.8,71.0,29.99,WNW,293,0.0,0.0,93,0.00,,,-99.99,1.0,HOBO +U30 +Weather +,2013-08-09 05:11:00,
2013-08-09 01:20:00,72.8,71.0,29.99,WNW,292,0.0,0.0,94,0.00,,,-99.99,1.0,HOBO +U30 +Weather +,2013-08-09 05:20:00,
2013-08-09 01:30:00,73.2,71.2,29.98,NW,309,0.0,0.0,93,0.00,,,-99.99,1.0,HOBO +U30 +Weather +,2013-08-09 05:30:00,
2013-08-09 01:40:00,73.1,71.2,29.99,WNW,284,0.0,0.0,93,0.00,,,-99.99,1.0,HOBO +U30 +Weather +,2013-08-09 05:40:00,
2013-08-09 01:50:00,72.7,71.0,29.98,WNW,286,0.0,0.0,94,0.00,,,-99.99,1.0,HOBO +U30 +Weather +,2013-08-09 05:50:00,
2013-08-09 02:00:00,72.5,70.8,29.98,WNW,292,0.0,0.0,94,0.00,,,-99.99,1.0,HOBO +U30 +Weather +,2013-08-09 06:00:00,
2013-08-09 02:10:00,72.5,70.8,29.98,WNW,286,0.0,0.0,94,0.00,,,-99.99,1.0,HOBO +U30 +Weather +,2013-08-09 06:10:00,
2013-08-09 02:11:00,72.6,70.8,29.97,West,277,0.0,0.0,93,0.00,,,-99.99,1.0,HOBO +U30 +Weather +,2013-08-09 06:11:00,
2013-08-09 02:20:00,72.5,70.7,29.98,WNW,289,0.0,0.0,93,0.00,,,-99.99,1.0,HOBO +U30 +Weather +,2013-08-09 06:20:00,
2013-08-09 02:21:00,72.5,70.7,29.97,WNW,302,0.0,0.0,93,0.00,,,-99.99,1.0,HOBO +U30 +Weather +,2013-08-09 06:21:00,
2013-08-09 02:30:00,72.4,70.7,29.97,WNW,284,0.0,0.0,94,0.00,,,-99.99,1.0,HOBO +U30 +Weather +,2013-08-09 06:30:00,
2013-08-09 02:40:00,72.6,70.8,29.97,WNW,285,0.0,0.0,93,0.00,,,-99.99,1.0,HOBO +U30 +Weather +,2013-08-09 06:40:00,
2013-08-09 02:50:00,72.8,70.9,29.96,WNW,292,0.0,0.0,93,0.00,,,-99.99,1.0,HOBO +U30 +Weather +,2013-08-09 06:50:00,
2013-08-09 03:00:00,72.8,71.0,29.96,WNW,292,0.0,0.0,93,0.00,,,-99.99,1.0,HOBO +U30 +Weather +,2013-08-09 07:00:00,
2013-08-09 03:10:00,72.8,71.1,29.96,WNW,296,0.0,0.0,94,0.00,,,-99.99,1.0,HOBO +U30 +Weather +,2013-08-09 07:10:00,
2013-08-09 03:20:00,72.9,71.1,29.95,West,279,0.0,0.0,93,0.00,,,-99.99,1.0,HOBO +U30 +Weather +,2013-08-09 07:20:00,
2013-08-09 03:30:00,73.1,71.2,29.95,WNW,293,0.0,0.0,93,0.00,,,-99.99,1.0,HOBO +U30 +Weather +,2013-08-09 07:30:00,
2013-08-09 03:40:00,73.1,71.2,29.96,WNW,291,0.0,0.0,93,0.00,,,-99.99,1.0,HOBO +U30 +Weather +,2013-08-09 07:40:00,
2013-08-09 03:50:00,72.9,71.1,29.95,WNW,296,0.0,0.0,93,0.00,,,-99.99,1.0,HOBO +U30 +Weather +,2013-08-09 07:50:00,
2013-08-09 04:00:00,73.0,71.3,29.95,WNW,284,0.0,0.0,94,0.00,,,-99.99,1.0,HOBO +U30 +Weather +,2013-08-09 08:00:00,
2013-08-09 04:01:00,73.4,71.5,29.95,WNW,295,0.0,0.0,93,0.00,,,-99.99,1.0,HOBO +U30 +Weather +,2013-08-09 08:01:00,
2013-08-09 04:10:00,73.6,71.6,29.96,WNW,286,0.0,0.0,93,0.00,,,-99.99,1.0,HOBO +U30 +Weather +,2013-08-09 08:10:00,
2013-08-09 04:11:00,73.3,71.4,29.96,WNW,302,0.0,0.0,93,0.00,,,-99.99,1.0,HOBO +U30 +Weather +,2013-08-09 08:11:00,
2013-08-09 04:20:00,73.6,71.5,29.95,West,281,0.0,0.0,93,0.00,,,-99.99,1.0,HOBO +U30 +Weather +,2013-08-09 08:20:00,
2013-08-09 04:30:00,73.7,71.5,29.96,WNW,299,0.0,0.0,93,0.00,,,-99.99,1.0,HOBO +U30 +Weather +,2013-08-09 08:30:00,
2013-08-09 04:40:00,73.8,71.6,29.96,WNW,286,0.0,0.0,92,0.00,,,-99.99,1.0,HOBO +U30 +Weather +,2013-08-09 08:40:00,
2013-08-09 04:41:00,73.8,71.6,29.95,WNW,291,0.0,0.0,92,0.00,,,-99.99,1.0,HOBO +U30 +Weather +,2013-08-09 08:41:00,
2013-08-09 04:42:00,73.7,71.6,29.95,WNW,291,0.0,0.0,92,0.00,,,-99.99,1.0,HOBO +U30 +Weather +,2013-08-09 08:42:00,
2013-08-09 04:43:00,73.7,71.5,29.95,WNW,299,0.0,0.0,92,0.00,,,-99.99,1.0,HOBO +U30 +Weather +,2013-08-09 08:43:00,
2013-08-09 04:44:00,73.7,71.5,29.95,WNW,285,0.0,0.0,93,0.00,,,-99.99,1.0,HOBO +U30 +Weather +,2013-08-09 08:44:00,
2013-08-09 04:45:00,73.7,71.5,29.95,West,281,0.0,0.0,92,0.00,,,-99.99,1.0,HOBO +U30 +Weather +,2013-08-09 08:45:00,
2013-08-09 04:46:00,73.7,71.5,29.95,WNW,289,0.0,0.0,93,0.00,,,-99.99,1.0,HOBO +U30 +Weather +,2013-08-09 08:46:00,
2013-08-09 04:47:00,73.7,71.5,29.95,WNW,282,0.0,0.0,93,0.00,,,-99.99,1.0,HOBO +U30 +Weather +,2013-08-09 08:47:00,
2013-08-09 04:48:00,73.7,71.6,29.95,West,279,0.0,0.0,93,0.00,,,-99.99,1.0,HOBO +U30 +Weather +,2013-08-09 08:48:00,
2013-08-09 04:49:00,73.8,71.6,29.96,WNW,295,0.0,0.0,92,0.00,,,-99.99,1.0,HOBO +U30 +Weather +,2013-08-09 08:49:00,
2013-08-09 04:50:00,73.9,71.7,29.95,West,281,0.0,0.0,92,0.00,,,-99.99,1.0,HOBO +U30 +Weather +,2013-08-09 08:50:00,
2013-08-09 05:00:00,73.8,71.6,29.95,WNW,292,0.0,0.0,92,0.00,,,-99.99,1.0,HOBO +U30 +Weather +,2013-08-09 09:00:00,
2013-08-09 05:09:00,73.9,71.7,29.96,WNW,292,0.0,0.0,92,0.00,,,-99.99,1.0,HOBO +U30 +Weather +,2013-08-09 09:09:00,
2013-08-09 05:19:00,74.1,71.7,29.95,WNW,296,0.0,0.0,92,0.00,,,-99.99,1.0,HOBO +U30 +Weather +,2013-08-09 09:19:00,
2013-08-09 05:29:00,74.1,71.8,29.95,WNW,286,0.0,0.0,92,0.00,,,-99.99,1.0,HOBO +U30 +Weather +,2013-08-09 09:29:00,
2013-08-09 05:39:00,74.2,71.8,29.95,WNW,282,0.0,0.0,92,0.00,,,-99.99,1.0,HOBO +U30 +Weather +,2013-08-09 09:39:00,
2013-08-09 05:49:00,74.1,71.8,29.95,WNW,296,0.0,0.0,92,0.00,,,-99.99,1.0,HOBO +U30 +Weather +,2013-08-09 09:49:00,
2013-08-09 05:59:00,73.9,71.7,29.95,West,275,0.0,0.0,92,0.00,,,-99.99,1.0,HOBO +U30 +Weather +,2013-08-09 09:59:00,
2013-08-09 06:00:00,73.9,71.7,29.96,WNW,295,0.0,0.0,92,0.00,,,-99.99,2.0,HOBO +U30 +Weather +,2013-08-09 10:00:00,
2013-08-09 06:10:00,73.9,71.8,29.96,WNW,292,0.0,0.0,92,0.00,,,-99.99,2.0,HOBO +U30 +Weather +,2013-08-09 10:10:00,
2013-08-09 06:19:00,73.9,71.8,29.95,WNW,289,0.0,0.0,92,0.00,,,-99.99,6.0,HOBO +U30 +Weather +,2013-08-09 10:19:00,
2013-08-09 06:29:00,74.1,71.8,29.95,WNW,291,0.0,0.0,92,0.00,,,-99.99,9.0,HOBO +U30 +Weather +,2013-08-09 10:29:00,
2013-08-09 06:30:00,74.1,71.7,29.95,West,268,0.0,0.0,92,0.00,,,-99.99,14.0,HOBO +U30 +Weather +,2013-08-09 10:30:00,
2013-08-09 06:40:00,74.1,71.7,29.95,NW,307,0.0,0.0,92,0.00,,,-99.99,14.0,HOBO +U30 +Weather +,2013-08-09 10:40:00,
2013-08-09 06:41:00,74.4,71.7,29.95,WNW,295,0.0,0.0,91,0.00,,,-99.99,18.0,HOBO +U30 +Weather +,2013-08-09 10:41:00,
2013-08-09 06:51:00,74.4,71.6,29.95,WNW,292,0.0,0.0,91,0.00,,,-99.99,19.0,HOBO +U30 +Weather +,2013-08-09 10:51:00,
2013-08-09 06:59:00,74.5,71.6,29.94,WNW,295,0.0,0.0,90,0.00,,,-99.99,32.0,HOBO +U30 +Weather +,2013-08-09 10:59:00,
2013-08-09 07:09:00,74.5,71.5,29.94,WNW,293,0.0,0.0,90,0.00,,,-99.99,57.0,HOBO +U30 +Weather +,2013-08-09 11:09:00,
2013-08-09 07:19:00,74.7,71.7,29.95,WNW,296,0.0,0.0,90,0.00,,,-99.99,92.0,HOBO +U30 +Weather +,2013-08-09 11:19:00,
2013-08-09 07:20:00,74.9,71.7,29.95,West,278,0.0,0.0,89,0.00,,,-99.99,91.0,HOBO +U30 +Weather +,2013-08-09 11:20:00,
2013-08-09 07:21:00,74.9,71.7,29.95,WNW,286,0.0,0.0,89,0.00,,,-99.99,92.0,HOBO +U30 +Weather +,2013-08-09 11:21:00,
2013-08-09 07:22:00,74.9,71.8,29.95,WNW,285,0.0,0.0,89,0.00,,,-99.99,91.0,HOBO +U30 +Weather +,2013-08-09 11:22:00,
2013-08-09 07:23:00,74.9,71.7,29.95,WNW,302,0.0,0.0,89,0.00,,,-99.99,87.0,HOBO +U30 +Weather +,2013-08-09 11:23:00,
2013-08-09 07:24:00,74.9,71.7,29.95,WNW,298,0.0,0.0,89,0.00,,,-99.99,81.0,HOBO +U30 +Weather +,2013-08-09 11:24:00,
2013-08-09 07:25:00,74.9,71.8,29.95,West,281,0.0,0.0,89,0.00,,,-99.99,81.0,HOBO +U30 +Weather +,2013-08-09 11:25:00,
2013-08-09 07:26:00,74.9,71.8,29.96,West,277,0.0,0.0,90,0.00,,,-99.99,84.0,HOBO +U30 +Weather +,2013-08-09 11:26:00,
2013-08-09 07:27:00,74.9,71.8,29.95,WNW,288,0.0,0.0,89,0.00,,,-99.99,87.0,HOBO +U30 +Weather +,2013-08-09 11:27:00,
2013-08-09 07:28:00,74.9,71.8,29.95,WNW,300,0.0,0.0,89,0.00,,,-99.99,88.0,HOBO +U30 +Weather +,2013-08-09 11:28:00,
2013-08-09 07:29:00,74.9,71.8,29.95,WNW,292,0.0,0.0,89,0.00,,,-99.99,87.0,HOBO +U30 +Weather +,2013-08-09 11:29:00,
2013-08-09 07:39:00,74.9,71.9,29.95,WNW,289,0.0,0.0,90,0.00,,,-99.99,86.0,HOBO +U30 +Weather +,2013-08-09 11:39:00,
2013-08-09 07:48:00,74.8,71.8,29.96,WNW,291,0.0,0.0,90,0.00,,,-99.99,64.0,HOBO +U30 +Weather +,2013-08-09 11:48:00,
2013-08-09 07:49:00,74.6,71.8,29.94,West,279,0.0,0.0,91,0.00,,,-99.99,66.0,HOBO +U30 +Weather +,2013-08-09 11:49:00,
2013-08-09 07:59:00,74.6,71.8,29.94,WNW,296,0.0,0.0,91,0.00,,,-99.99,68.0,HOBO +U30 +Weather +,2013-08-09 11:59:00,
2013-08-09 08:09:00,74.9,72.0,29.94,WNW,286,0.0,0.0,90,0.00,,,-99.99,98.0,HOBO +U30 +Weather +,2013-08-09 12:09:00,
2013-08-09 08:18:00,75.3,72.4,29.94,WNW,296,0.0,0.0,90,0.00,,,-99.99,138.0,HOBO +U30 +Weather +,2013-08-09 12:18:00,
2013-08-09 08:28:00,75.6,72.6,29.94,WNW,284,0.0,0.0,90,0.00,,,-99.99,122.0,HOBO +U30 +Weather +,2013-08-09 12:28:00,
2013-08-09 08:38:00,75.4,72.5,29.93,WNW,292,0.0,0.0,90,0.00,,,-99.99,98.0,HOBO +U30 +Weather +,2013-08-09 12:38:00,
2013-08-09 08:48:00,75.4,72.7,29.93,West,268,0.0,0.0,91,0.00,,,-99.99,126.0,HOBO +U30 +Weather +,2013-08-09 12:48:00,
2013-08-09 08:49:00,75.6,73.0,29.93,West,278,0.0,0.0,91,0.00,,,-99.99,137.0,HOBO +U30 +Weather +,2013-08-09 12:49:00,
2013-08-09 08:59:00,75.6,72.9,29.93,West,275,0.0,0.0,91,0.00,,,-99.99,128.0,HOBO +U30 +Weather +,2013-08-09 12:59:00,
2013-08-09 09:08:00,75.4,72.8,29.93,West,279,0.0,0.0,91,0.00,,,-99.99,108.0,HOBO +U30 +Weather +,2013-08-09 13:08:00,
2013-08-09 09:18:00,75.3,72.8,29.92,West,281,0.0,0.0,91,0.00,,,-99.99,104.0,HOBO +U30 +Weather +,2013-08-09 13:18:00,
2013-08-09 09:28:00,75.4,72.9,29.92,WNW,298,0.0,0.0,91,0.00,,,-99.99,137.0,HOBO +U30 +Weather +,2013-08-09 13:28:00,
2013-08-09 09:38:00,75.3,72.9,29.92,West,272,0.0,0.0,91,0.00,,,-99.99,98.0,HOBO +U30 +Weather +,2013-08-09 13:38:00,
2013-08-09 09:48:00,75.4,72.8,29.92,WNW,298,0.0,0.0,91,0.00,,,-99.99,98.0,HOBO +U30 +Weather +,2013-08-09 13:48:00,
2013-08-09 09:58:00,75.4,72.8,29.92,West,272,0.0,0.0,91,0.00,,,-99.99,77.0,HOBO +U30 +Weather +,2013-08-09 13:58:00,
2013-08-09 10:08:00,75.3,72.8,29.92,West,281,0.0,0.0,91,0.00,,,-99.99,69.0,HOBO +U30 +Weather +,2013-08-09 14:08:00,
2013-08-09 10:18:00,75.2,72.9,29.92,West,275,0.0,0.0,92,0.00,,,-99.99,81.0,HOBO +U30 +Weather +,2013-08-09 14:18:00,
2013-08-09 10:19:00,75.3,73.0,29.91,WNW,282,0.0,0.0,92,0.00,,,-99.99,96.0,HOBO +U30 +Weather +,2013-08-09 14:19:00,
2013-08-09 10:29:00,75.3,73.0,29.91,West,281,0.0,0.0,92,0.00,,,-99.99,98.0,HOBO +U30 +Weather +,2013-08-09 14:29:00,
2013-08-09 10:38:00,75.2,73.0,29.90,West,281,0.0,0.0,92,0.00,,,-99.99,97.0,HOBO +U30 +Weather +,2013-08-09 14:38:00,
2013-08-09 10:48:00,75.0,73.1,29.90,West,277,0.0,0.0,93,0.00,,,-99.99,104.0,HOBO +U30 +Weather +,2013-08-09 14:48:00,
2013-08-09 10:49:00,74.5,72.9,29.90,WNW,282,0.0,0.0,94,0.00,,,-99.99,89.0,HOBO +U30 +Weather +,2013-08-09 14:49:00,
2013-08-09 10:50:00,74.4,72.9,29.90,West,263,0.0,0.0,94,0.00,,,-99.99,91.0,HOBO +U30 +Weather +,2013-08-09 14:50:00,
2013-08-09 10:51:00,74.4,72.8,29.90,West,264,0.0,0.0,94,0.00,,,-99.99,91.0,HOBO +U30 +Weather +,2013-08-09 14:51:00,
2013-08-09 10:52:00,74.4,72.8,29.90,West,275,0.0,0.0,94,0.00,,,-99.99,88.0,HOBO +U30 +Weather +,2013-08-09 14:52:00,
2013-08-09 10:53:00,74.3,72.8,29.90,West,267,0.0,0.0,94,0.00,,,-99.99,102.0,HOBO +U30 +Weather +,2013-08-09 14:53:00,
2013-08-09 10:54:00,74.3,72.8,29.90,West,278,0.0,0.0,94,0.00,,,-99.99,112.0,HOBO +U30 +Weather +,2013-08-09 14:54:00,
2013-08-09 10:55:00,74.3,72.8,29.90,West,261,0.0,0.0,94,0.00,,,-99.99,113.0,HOBO +U30 +Weather +,2013-08-09 14:55:00,
2013-08-09 10:56:00,74.4,72.8,29.90,WSW,254,0.0,0.0,94,0.00,,,-99.99,113.0,HOBO +U30 +Weather +,2013-08-09 14:56:00,
2013-08-09 10:57:00,74.4,72.9,29.90,West,265,0.0,0.0,94,0.00,,,-99.99,113.0,HOBO +U30 +Weather +,2013-08-09 14:57:00,
2013-08-09 10:58:00,74.4,73.0,29.89,West,268,0.0,0.0,95,0.00,,,-99.99,114.0,HOBO +U30 +Weather +,2013-08-09 14:58:00,
2013-08-09 11:08:00,74.3,73.0,29.89,WNW,292,0.0,0.0,95,0.00,,,-99.99,112.0,HOBO +U30 +Weather +,2013-08-09 15:08:00,
2013-08-09 11:18:00,73.8,72.8,29.90,WNW,291,0.0,0.0,96,0.00,,,-99.99,98.0,HOBO +U30 +Weather +,2013-08-09 15:18:00,
2013-08-09 11:19:00,73.5,72.8,29.89,West,263,0.0,0.0,97,0.00,,,-99.99,84.0,HOBO +U30 +Weather +,2013-08-09 15:19:00,
2013-08-09 11:20:00,73.5,72.8,29.89,WNW,288,0.0,0.0,97,0.00,,,-99.99,88.0,HOBO +U30 +Weather +,2013-08-09 15:20:00,
2013-08-09 11:21:00,73.6,72.9,29.89,West,275,0.0,0.0,97,0.00,,,-99.99,81.0,HOBO +U30 +Weather +,2013-08-09 15:21:00,
2013-08-09 11:22:00,73.6,72.9,29.89,WNW,284,0.0,0.0,97,0.00,,,-99.99,83.0,HOBO +U30 +Weather +,2013-08-09 15:22:00,
2013-08-09 11:23:00,73.6,72.9,29.89,West,267,0.0,0.0,97,0.00,,,-99.99,87.0,HOBO +U30 +Weather +,2013-08-09 15:23:00,
2013-08-09 11:24:00,73.6,72.9,29.89,West,270,0.0,0.0,97,0.00,,,-99.99,81.0,HOBO +U30 +Weather +,2013-08-09 15:24:00,
2013-08-09 11:25:00,73.6,72.9,29.88,West,267,0.0,0.0,97,0.00,,,-99.99,68.0,HOBO +U30 +Weather +,2013-08-09 15:25:00,
2013-08-09 11:26:00,73.6,72.9,29.89,West,271,0.0,0.0,97,0.00,,,-99.99,63.0,HOBO +U30 +Weather +,2013-08-09 15:26:00,
2013-08-09 11:27:00,73.5,72.9,29.88,WSW,256,0.0,0.0,97,0.00,,,-99.99,53.0,HOBO +U30 +Weather +,2013-08-09 15:27:00,
2013-08-09 11:37:00,73.5,72.9,29.88,West,260,0.0,0.0,97,0.00,,,-99.99,54.0,HOBO +U30 +Weather +,2013-08-09 15:37:00,
2013-08-09 11:47:00,73.4,72.9,29.88,WSW,257,0.0,0.0,98,0.00,,,-99.99,91.0,HOBO +U30 +Weather +,2013-08-09 15:47:00,
2013-08-09 11:48:00,73.3,72.9,29.88,West,263,0.0,0.0,98,0.00,,,-99.99,107.0,HOBO +U30 +Weather +,2013-08-09 15:48:00,
2013-08-09 11:57:00,73.6,73.1,29.88,West,268,0.0,0.0,98,0.00,,,-99.99,131.0,HOBO +U30 +Weather +,2013-08-09 15:57:00,
2013-08-09 11:58:00,73.4,72.9,29.88,West,277,0.0,0.0,98,0.00,,,-99.99,113.0,HOBO +U30 +Weather +,2013-08-09 15:58:00,
2013-08-09 11:59:00,73.6,73.0,29.88,West,279,0.0,0.0,98,0.00,,,-99.99,118.0,HOBO +U30 +Weather +,2013-08-09 15:59:00,
2013-08-09 12:07:00,73.7,73.2,29.87,West,261,0.0,0.0,98,0.00,,,-99.99,142.0,HOBO +U30 +Weather +,2013-08-09 16:07:00,
2013-08-09 12:09:00,73.6,73.0,29.88,West,270,0.0,0.0,98,0.00,,,-99.99,113.0,HOBO +U30 +Weather +,2013-08-09 16:09:00,
2013-08-09 12:17:00,73.8,73.3,29.88,WNW,282,0.0,0.0,98,0.00,,,-99.99,133.0,HOBO +U30 +Weather +,2013-08-09 16:17:00,
2013-08-09 12:27:00,73.9,73.3,29.88,West,267,0.0,0.0,97,0.00,,,-99.99,151.0,HOBO +U30 +Weather +,2013-08-09 16:27:00,
2013-08-09 12:36:00,73.8,73.2,29.87,West,278,0.0,0.0,97,0.00,,,-99.99,149.0,HOBO +U30 +Weather +,2013-08-09 16:36:00,
2013-08-09 12:37:00,73.8,73.1,29.87,WNW,284,0.0,0.0,97,0.00,,,-99.99,91.0,HOBO +U30 +Weather +,2013-08-09 16:37:00,
2013-08-09 12:47:00,73.8,73.1,29.87,West,263,0.0,0.0,97,0.00,,,-99.99,74.0,HOBO +U30 +Weather +,2013-08-09 16:47:00,
2013-08-09 12:57:00,73.4,72.8,29.87,West,274,0.0,0.0,98,0.00,,,-99.99,33.0,HOBO +U30 +Weather +,2013-08-09 16:57:00,
2013-08-09 12:58:00,73.4,72.8,29.87,West,279,0.0,0.0,98,0.00,,,-99.99,78.0,HOBO +U30 +Weather +,2013-08-09 16:58:00,
2013-08-09 12:59:00,73.4,72.8,29.86,West,264,0.0,0.0,98,0.00,,,-99.99,72.0,HOBO +U30 +Weather +,2013-08-09 16:59:00,
2013-08-09 13:00:00,73.4,72.8,29.87,West,270,0.0,0.0,98,0.00,,,-99.99,62.0,HOBO +U30 +Weather +,2013-08-09 17:00:00,
2013-08-09 13:10:00,73.3,72.8,29.86,WNW,288,0.0,0.0,98,0.00,,,-99.99,56.0,HOBO +U30 +Weather +,2013-08-09 17:10:00,
2013-08-09 13:18:00,73.3,72.9,29.86,West,268,0.0,0.0,98,0.00,,,-99.99,56.0,HOBO +U30 +Weather +,2013-08-09 17:18:00,
2013-08-09 13:28:00,73.4,72.9,29.85,West,281,0.0,0.0,98,0.00,,,-99.99,92.0,HOBO +U30 +Weather +,2013-08-09 17:28:00,
2013-08-09 13:38:00,73.3,72.8,29.85,WNW,284,0.0,0.0,98,0.00,,,-99.99,73.0,HOBO +U30 +Weather +,2013-08-09 17:38:00,
2013-08-09 13:48:00,73.2,72.6,29.84,West,277,0.0,0.0,98,0.00,,,-99.99,87.0,HOBO +U30 +Weather +,2013-08-09 17:48:00,
2013-08-09 13:58:00,72.9,72.2,29.83,West,267,0.0,0.0,97,0.00,,,-99.99,78.0,HOBO +U30 +Weather +,2013-08-09 17:58:00,
2013-08-09 14:08:00,72.2,71.6,29.83,WNW,295,0.0,0.0,97,0.00,,,-99.99,41.0,HOBO +U30 +Weather +,2013-08-09 18:08:00,
2013-08-09 14:18:00,71.9,71.7,29.83,West,268,0.0,0.0,98,0.00,,,-99.99,36.0,HOBO +U30 +Weather +,2013-08-09 18:18:00,
2013-08-09 14:19:00,71.7,71.6,29.82,West,271,0.0,0.0,99,0.00,,,-99.99,29.0,HOBO +U30 +Weather +,2013-08-09 18:19:00,
2013-08-09 14:20:00,71.7,71.6,29.82,West,263,0.0,0.0,99,0.00,,,-99.99,23.0,HOBO +U30 +Weather +,2013-08-09 18:20:00,
2013-08-09 14:21:00,71.7,71.6,29.82,WSW,251,0.0,0.0,99,0.00,,,-99.99,22.0,HOBO +U30 +Weather +,2013-08-09 18:21:00,
2013-08-09 14:22:00,71.7,71.5,29.82,West,275,0.0,0.0,99,0.00,,,-99.99,19.0,HOBO +U30 +Weather +,2013-08-09 18:22:00,
2013-08-09 14:23:00,71.7,71.5,29.81,West,277,0.0,0.0,99,0.00,,,-99.99,28.0,HOBO +U30 +Weather +,2013-08-09 18:23:00,
2013-08-09 14:24:00,71.7,71.5,29.82,West,272,0.0,0.0,99,0.00,,,-99.99,24.0,HOBO +U30 +Weather +,2013-08-09 18:24:00,
2013-08-09 14:25:00,71.7,71.5,29.81,West,277,0.0,0.0,99,0.00,,,-99.99,27.0,HOBO +U30 +Weather +,2013-08-09 18:25:00,
2013-08-09 14:26:00,71.7,71.5,29.82,West,278,0.0,0.0,99,0.00,,,-99.99,27.0,HOBO +U30 +Weather +,2013-08-09 18:26:00,
2013-08-09 14:27:00,71.6,71.5,29.82,West,281,0.0,0.0,99,0.00,,,-99.99,23.0,HOBO +U30 +Weather +,2013-08-09 18:27:00,
2013-08-09 14:28:00,71.6,71.5,29.81,WNW,282,0.0,0.0,99,0.00,,,-99.99,28.0,HOBO +U30 +Weather +,2013-08-09 18:28:00,
2013-08-09 14:38:00,71.6,71.5,29.81,West,271,0.0,0.0,99,0.00,,,-99.99,32.0,HOBO +U30 +Weather +,2013-08-09 18:38:00,
2013-08-09 14:48:00,71.4,71.3,29.80,WSW,258,0.0,0.0,99,0.00,,,-99.99,44.0,HOBO +U30 +Weather +,2013-08-09 18:48:00,
2013-08-09 14:49:00,71.2,71.2,29.80,West,277,0.0,0.0,99,0.00,,,-99.99,31.0,HOBO +U30 +Weather +,2013-08-09 18:49:00,
2013-08-09 14:50:00,71.2,71.2,29.80,West,272,0.0,0.0,99,0.00,,,-99.99,32.0,HOBO +U30 +Weather +,2013-08-09 18:50:00,
2013-08-09 14:51:00,71.2,71.2,29.81,West,260,0.0,0.0,99,0.00,,,-99.99,27.0,HOBO +U30 +Weather +,2013-08-09 18:51:00,
2013-08-09 14:52:00,71.2,71.1,29.80,WSW,246,0.0,0.0,99,0.00,,,-99.99,26.0,HOBO +U30 +Weather +,2013-08-09 18:52:00,
2013-08-09 14:53:00,71.2,71.1,29.80,WSW,256,0.0,0.0,99,0.00,,,-99.99,28.0,HOBO +U30 +Weather +,2013-08-09 18:53:00,
2013-08-09 14:54:00,71.2,71.1,29.80,West,277,0.0,0.0,99,0.00,,,-99.99,27.0,HOBO +U30 +Weather +,2013-08-09 18:54:00,
2013-08-09 14:55:00,71.1,71.1,29.80,West,277,0.0,0.0,99,0.00,,,-99.99,27.0,HOBO +U30 +Weather +,2013-08-09 18:55:00,
2013-08-09 14:56:00,71.0,71.0,29.81,West,260,0.0,0.0,99,0.00,,,-99.99,27.0,HOBO +U30 +Weather +,2013-08-09 18:56:00,
2013-08-09 14:57:00,71.0,70.9,29.81,West,275,0.0,0.0,99,0.00,,,-99.99,29.0,HOBO +U30 +Weather +,2013-08-09 18:57:00,
2013-08-09 14:58:00,70.9,70.8,29.80,West,275,0.0,0.0,99,0.00,,,-99.99,29.0,HOBO +U30 +Weather +,2013-08-09 18:58:00,
2013-08-09 15:08:00,70.9,70.9,29.80,West,268,0.0,0.0,99,0.00,,,-99.99,24.0,HOBO +U30 +Weather +,2013-08-09 19:08:00,
2013-08-09 15:16:00,70.6,70.6,29.80,WSW,258,0.0,0.0,99,0.00,,,-99.99,17.0,HOBO +U30 +Weather +,2013-08-09 19:16:00,
2013-08-09 15:17:00,70.6,70.6,29.78,WSW,253,0.0,0.0,100,0.00,,,-99.99,13.0,HOBO +U30 +Weather +,2013-08-09 19:17:00,
2013-08-09 15:18:00,70.6,70.7,29.78,West,274,0.0,0.0,100,0.00,,,-99.99,17.0,HOBO +U30 +Weather +,2013-08-09 19:18:00,
2013-08-09 15:19:00,70.7,70.8,29.78,West,268,0.0,0.0,100,0.00,,,-99.99,18.0,HOBO +U30 +Weather +,2013-08-09 19:19:00,
2013-08-09 15:20:00,70.7,70.8,29.78,West,261,0.0,0.0,100,0.00,,,-99.99,16.0,HOBO +U30 +Weather +,2013-08-09 19:20:00,
2013-08-09 15:21:00,70.8,70.8,29.78,West,260,0.0,0.0,100,0.00,,,-99.99,14.0,HOBO +U30 +Weather +,2013-08-09 19:21:00,
2013-08-09 15:22:00,70.8,70.9,29.78,West,271,0.0,0.0,100,0.00,,,-99.99,16.0,HOBO +U30 +Weather +,2013-08-09 19:22:00,
2013-08-09 15:23:00,71.0,71.0,29.78,West,278,0.0,0.0,100,0.00,,,-99.99,17.0,HOBO +U30 +Weather +,2013-08-09 19:23:00,
2013-08-09 15:24:00,71.1,71.1,29.78,WSW,258,0.0,0.0,100,0.00,,,-99.99,19.0,HOBO +U30 +Weather +,2013-08-09 19:24:00,
2013-08-09 15:25:00,71.1,71.2,29.77,West,260,0.0,0.0,100,0.00,,,-99.99,16.0,HOBO +U30 +Weather +,2013-08-09 19:25:00,
2013-08-09 15:26:00,71.2,71.2,29.78,West,263,0.0,0.0,100,0.00,,,-99.99,12.0,HOBO +U30 +Weather +,2013-08-09 19:26:00,
2013-08-09 15:36:00,71.2,71.3,29.77,WSW,257,0.0,0.0,100,0.00,,,-99.99,9.0,HOBO +U30 +Weather +,2013-08-09 19:36:00,
2013-08-09 15:45:00,71.4,71.5,29.76,West,268,0.0,0.0,100,0.00,,,-99.99,12.0,HOBO +U30 +Weather +,2013-08-09 19:45:00,
2013-08-09 15:55:00,71.9,72.0,29.75,West,267,0.0,0.0,100,0.00,,,-99.99,16.0,HOBO +U30 +Weather +,2013-08-09 19:55:00,
2013-08-09 16:05:00,72.4,72.4,29.74,West,267,0.0,0.0,100,0.00,,,-99.99,18.0,HOBO +U30 +Weather +,2013-08-09 20:05:00,
2013-08-09 16:06:00,72.5,72.6,29.75,West,281,0.0,0.0,100,0.00,,,-99.99,8.0,HOBO +U30 +Weather +,2013-08-09 20:06:00,
2013-08-09 16:16:00,72.6,72.7,29.75,WNW,284,0.0,0.0,100,0.00,,,-99.99,11.0,HOBO +U30 +Weather +,2013-08-09 20:16:00,
2013-08-09 16:25:00,72.6,72.6,29.76,WNW,289,0.0,0.0,100,0.00,,,-99.99,11.0,HOBO +U30 +Weather +,2013-08-09 20:25:00,
2013-08-09 16:35:00,72.7,72.8,29.75,WNW,295,0.0,0.0,100,0.00,,,-99.99,19.0,HOBO +U30 +Weather +,2013-08-09 20:35:00,
2013-08-09 16:45:00,73.1,73.1,29.74,WNW,282,0.0,0.0,100,0.00,,,-99.99,128.0,HOBO +U30 +Weather +,2013-08-09 20:45:00,
2013-08-09 16:55:00,73.3,73.4,29.74,West,279,0.0,0.0,100,0.00,,,-99.99,68.0,HOBO +U30 +Weather +,2013-08-09 20:55:00,
2013-08-09 17:05:00,73.4,73.5,29.74,West,277,0.0,0.0,100,0.00,,,-99.99,61.0,HOBO +U30 +Weather +,2013-08-09 21:05:00,
2013-08-09 17:15:00,73.3,73.3,29.73,WNW,292,0.0,0.0,100,0.00,,,-99.99,32.0,HOBO +U30 +Weather +,2013-08-09 21:15:00,
2013-08-09 17:25:00,73.3,73.3,29.74,WNW,288,0.0,0.0,99,0.00,,,-99.99,27.0,HOBO +U30 +Weather +,2013-08-09 21:25:00,
2013-08-09 17:35:00,73.5,73.4,29.73,WNW,293,0.0,0.0,99,0.00,,,-99.99,37.0,HOBO +U30 +Weather +,2013-08-09 21:35:00,
2013-08-09 17:45:00,73.7,73.6,29.73,WNW,289,0.0,0.0,99,0.00,,,-99.99,42.0,HOBO +U30 +Weather +,2013-08-09 21:45:00,
2013-08-09 17:46:00,73.9,73.8,29.73,WNW,303,0.0,0.0,99,0.00,,,-99.99,19.0,HOBO +U30 +Weather +,2013-08-09 21:46:00,
2013-08-09 17:56:00,74.0,73.8,29.73,WNW,295,0.0,0.0,99,0.00,,,-99.99,26.0,HOBO +U30 +Weather +,2013-08-09 21:56:00,
2013-08-09 18:05:00,74.1,73.9,29.72,WNW,299,0.0,0.0,99,0.00,,,-99.99,23.0,HOBO +U30 +Weather +,2013-08-09 22:05:00,
2013-08-09 18:15:00,74.3,74.1,29.72,West,278,0.0,0.0,98,0.00,,,-99.99,71.0,HOBO +U30 +Weather +,2013-08-09 22:15:00,
2013-08-09 18:16:00,74.4,74.0,29.73,WNW,295,0.0,0.0,98,0.00,,,-99.99,24.0,HOBO +U30 +Weather +,2013-08-09 22:16:00,
2013-08-09 18:17:00,74.4,73.9,29.73,WNW,295,0.0,0.0,98,0.00,,,-99.99,26.0,HOBO +U30 +Weather +,2013-08-09 22:17:00,
2013-08-09 18:18:00,74.3,73.9,29.72,WNW,288,0.0,0.0,98,0.00,,,-99.99,24.0,HOBO +U30 +Weather +,2013-08-09 22:18:00,
2013-08-09 18:19:00,74.3,73.9,29.72,WNW,292,0.0,0.0,98,0.00,,,-99.99,14.0,HOBO +U30 +Weather +,2013-08-09 22:19:00,
2013-08-09 18:20:00,74.2,73.9,29.73,WNW,299,0.0,0.0,98,0.00,,,-99.99,16.0,HOBO +U30 +Weather +,2013-08-09 22:20:00,
2013-08-09 18:21:00,74.2,73.9,29.73,WNW,292,0.0,0.0,98,0.00,,,-99.99,19.0,HOBO +U30 +Weather +,2013-08-09 22:21:00,
2013-08-09 18:22:00,74.2,73.9,29.72,WNW,291,0.0,0.0,98,0.00,,,-99.99,19.0,HOBO +U30 +Weather +,2013-08-09 22:22:00,
2013-08-09 18:23:00,74.2,73.9,29.72,WNW,298,0.0,0.0,98,0.00,,,-99.99,18.0,HOBO +U30 +Weather +,2013-08-09 22:23:00,
2013-08-09 18:24:00,74.2,73.9,29.72,WNW,293,0.0,0.0,98,0.00,,,-99.99,19.0,HOBO +U30 +Weather +,2013-08-09 22:24:00,
2013-08-09 18:25:00,74.2,73.8,29.73,WNW,298,0.0,0.0,98,0.00,,,-99.99,16.0,HOBO +U30 +Weather +,2013-08-09 22:25:00,
2013-08-09 18:35:00,74.2,73.9,29.73,WNW,288,0.0,0.0,98,0.00,,,-99.99,14.0,HOBO +U30 +Weather +,2013-08-09 22:35:00,
2013-08-09 18:44:00,74.1,73.8,29.73,WNW,296,0.0,0.0,98,0.00,,,-99.99,13.0,HOBO +U30 +Weather +,2013-08-09 22:44:00,
2013-08-09 18:45:00,74.0,73.8,29.72,WNW,282,0.0,0.0,98,0.00,,,-99.99,9.0,HOBO +U30 +Weather +,2013-08-09 22:45:00,
2013-08-09 18:55:00,74.1,73.8,29.74,WNW,286,0.0,0.0,98,0.00,,,-99.99,11.0,HOBO +U30 +Weather +,2013-08-09 22:55:00,
2013-08-09 19:04:00,74.1,73.8,29.74,WNW,284,0.0,0.0,98,0.00,,,-99.99,4.0,HOBO +U30 +Weather +,2013-08-09 23:04:00,
2013-08-09 19:14:00,73.9,73.6,29.73,WNW,284,0.0,0.0,98,0.00,,,-99.99,6.0,HOBO +U30 +Weather +,2013-08-09 23:14:00,
2013-08-09 19:24:00,73.8,73.6,29.73,WNW,296,0.0,0.0,99,0.00,,,-99.99,4.0,HOBO +U30 +Weather +,2013-08-09 23:24:00,
2013-08-09 19:34:00,73.9,73.6,29.74,WNW,302,0.0,0.0,98,0.00,,,-99.99,6.0,HOBO +U30 +Weather +,2013-08-09 23:34:00,
2013-08-09 19:44:00,73.9,73.6,29.74,WNW,303,0.0,0.0,99,0.00,,,-99.99,2.0,HOBO +U30 +Weather +,2013-08-09 23:44:00,
2013-08-09 19:54:00,73.5,73.3,29.73,WNW,302,0.0,0.0,99,0.00,,,-99.99,1.0,HOBO +U30 +Weather +,2013-08-09 23:54:00,
2013-08-09 19:55:00,73.5,73.4,29.73,WNW,298,0.0,0.0,99,0.00,,,-99.99,1.0,HOBO +U30 +Weather +,2013-08-09 23:55:00,
2013-08-09 20:05:00,73.5,73.4,29.74,NW,306,0.0,0.0,99,0.00,,,-99.99,1.0,HOBO +U30 +Weather +,2013-08-10 00:05:00,
2013-08-09 20:14:00,73.3,73.2,29.73,WNW,291,0.0,0.0,99,0.00,,,-99.99,1.0,HOBO +U30 +Weather +,2013-08-10 00:14:00,
2013-08-09 20:24:00,73.2,73.1,29.74,WNW,298,0.0,0.0,99,0.00,,,-99.99,1.0,HOBO +U30 +Weather +,2013-08-10 00:24:00,
2013-08-09 20:34:00,73.0,73.0,29.74,WNW,288,0.0,0.0,99,0.00,,,-99.99,1.0,HOBO +U30 +Weather +,2013-08-10 00:34:00,
2013-08-09 20:44:00,72.8,72.9,29.74,NW,312,0.0,0.0,100,0.00,,,-99.99,1.0,HOBO +U30 +Weather +,2013-08-10 00:44:00,
2013-08-09 20:54:00,72.6,72.7,29.75,NNW,334,0.0,0.0,100,0.00,,,-99.99,1.0,HOBO +U30 +Weather +,2013-08-10 00:54:00,
2013-08-09 20:55:00,72.4,72.5,29.75,WNW,292,0.0,0.0,100,0.00,,,-99.99,1.0,HOBO +U30 +Weather +,2013-08-10 00:55:00,
2013-08-09 20:56:00,72.4,72.4,29.75,WNW,292,0.0,0.0,100,0.00,,,-99.99,1.0,HOBO +U30 +Weather +,2013-08-10 00:56:00,
2013-08-09 20:57:00,72.4,72.5,29.75,WNW,286,0.0,0.0,100,0.00,,,-99.99,1.0,HOBO +U30 +Weather +,2013-08-10 00:57:00,
2013-08-09 20:58:00,72.4,72.5,29.75,WNW,298,0.0,0.0,100,0.00,,,-99.99,1.0,HOBO +U30 +Weather +,2013-08-10 00:58:00,
2013-08-09 20:59:00,72.4,72.5,29.75,WNW,300,0.0,0.0,100,0.00,,,-99.99,1.0,HOBO +U30 +Weather +,2013-08-10 00:59:00,
2013-08-09 21:00:00,72.4,72.4,29.75,NW,319,0.0,0.0,100,0.00,,,-99.99,1.0,HOBO +U30 +Weather +,2013-08-10 01:00:00,
2013-08-09 21:01:00,72.4,72.4,29.75,WNW,285,0.0,0.0,100,0.00,,,-99.99,1.0,HOBO +U30 +Weather +,2013-08-10 01:01:00,
2013-08-09 21:02:00,72.4,72.4,29.75,WNW,293,0.0,0.0,100,0.00,,,-99.99,1.0,HOBO +U30 +Weather +,2013-08-10 01:02:00,
2013-08-09 21:03:00,72.4,72.4,29.75,WNW,288,0.0,0.0,100,0.00,,,-99.99,1.0,HOBO +U30 +Weather +,2013-08-10 01:03:00,
2013-08-09 21:04:00,72.4,72.4,29.75,WNW,293,0.0,0.0,100,0.00,,,-99.99,1.0,HOBO +U30 +Weather +,2013-08-10 01:04:00,
2013-08-09 21:14:00,72.4,72.4,29.75,WNW,300,0.0,0.0,100,0.00,,,-99.99,1.0,HOBO +U30 +Weather +,2013-08-10 01:14:00,
2013-08-09 21:15:00,72.4,72.4,29.75,WNW,293,0.0,0.0,100,0.00,,,-99.99,1.0,HOBO +U30 +Weather +,2013-08-10 01:15:00,
2013-08-09 21:16:00,72.4,72.4,29.75,WNW,302,0.0,0.0,100,0.00,,,-99.99,1.0,HOBO +U30 +Weather +,2013-08-10 01:16:00,
2013-08-09 21:26:00,72.4,72.4,29.75,WNW,299,0.0,0.0,100,0.00,,,-99.99,1.0,HOBO +U30 +Weather +,2013-08-10 01:26:00,
2013-08-09 21:33:00,72.4,72.4,29.75,WNW,291,0.0,0.0,100,0.00,,,-99.99,1.0,HOBO +U30 +Weather +,2013-08-10 01:33:00,
2013-08-09 21:34:00,72.4,72.4,29.75,WNW,282,0.0,0.0,100,0.00,,,-99.99,1.0,HOBO +U30 +Weather +,2013-08-10 01:34:00,
2013-08-09 21:35:00,72.4,72.4,29.75,WNW,292,0.0,0.0,100,0.00,,,-99.99,1.0,HOBO +U30 +Weather +,2013-08-10 01:35:00,
2013-08-09 21:36:00,72.4,72.4,29.75,WNW,289,0.0,0.0,100,0.00,,,-99.99,1.0,HOBO +U30 +Weather +,2013-08-10 01:36:00,
2013-08-09 21:37:00,72.4,72.4,29.75,NNW,331,0.0,0.0,100,0.00,,,-99.99,1.0,HOBO +U30 +Weather +,2013-08-10 01:37:00,
2013-08-09 21:38:00,72.4,72.4,29.75,WNW,298,0.0,0.0,100,0.00,,,-99.99,1.0,HOBO +U30 +Weather +,2013-08-10 01:38:00,
2013-08-09 21:39:00,72.4,72.4,29.75,NW,309,0.0,0.0,100,0.00,,,-99.99,1.0,HOBO +U30 +Weather +,2013-08-10 01:39:00,
2013-08-09 21:40:00,72.4,72.4,29.75,West,267,0.0,0.0,100,0.00,,,-99.99,1.0,HOBO +U30 +Weather +,2013-08-10 01:40:00,
2013-08-09 21:41:00,72.4,72.4,29.75,WNW,288,0.0,0.0,100,0.00,,,-99.99,1.0,HOBO +U30 +Weather +,2013-08-10 01:41:00,
2013-08-09 21:42:00,72.4,72.4,29.75,WNW,292,0.0,0.0,100,0.00,,,-99.99,1.0,HOBO +U30 +Weather +,2013-08-10 01:42:00,
2013-08-09 21:43:00,72.4,72.4,29.74,WNW,295,0.0,0.0,100,0.00,,,-99.99,1.0,HOBO +U30 +Weather +,2013-08-10 01:43:00,
2013-08-09 21:44:00,72.4,72.4,29.75,West,279,0.0,0.0,100,0.00,,,-99.99,1.0,HOBO +U30 +Weather +,2013-08-10 01:44:00,
2013-08-09 21:54:00,72.4,72.4,29.75,WNW,302,0.0,0.0,100,0.00,,,-99.99,1.0,HOBO +U30 +Weather +,2013-08-10 01:54:00,
2013-08-09 22:03:00,72.3,72.3,29.74,NW,310,0.0,0.0,100,0.00,,,-99.99,1.0,HOBO +U30 +Weather +,2013-08-10 02:03:00,
2013-08-09 22:04:00,72.2,72.2,29.74,WNW,293,0.0,0.0,100,0.00,,,-99.99,1.0,HOBO +U30 +Weather +,2013-08-10 02:04:00,
2013-08-09 22:05:00,72.2,72.2,29.74,WNW,296,0.0,0.0,100,0.00,,,-99.99,1.0,HOBO +U30 +Weather +,2013-08-10 02:05:00,
2013-08-09 22:06:00,72.2,72.2,29.74,WNW,289,0.0,0.0,100,0.00,,,-99.99,1.0,HOBO +U30 +Weather +,2013-08-10 02:06:00,
2013-08-09 22:07:00,72.2,72.2,29.74,WNW,288,0.0,0.0,100,0.00,,,-99.99,1.0,HOBO +U30 +Weather +,2013-08-10 02:07:00,
2013-08-09 22:08:00,72.1,72.2,29.74,WNW,293,0.0,0.0,100,0.00,,,-99.99,1.0,HOBO +U30 +Weather +,2013-08-10 02:08:00,
2013-08-09 22:09:00,72.1,72.2,29.74,WNW,286,0.0,0.0,100,0.00,,,-99.99,1.0,HOBO +U30 +Weather +,2013-08-10 02:09:00,
2013-08-09 22:10:00,72.1,72.2,29.74,WNW,289,0.0,0.0,100,0.00,,,-99.99,1.0,HOBO +U30 +Weather +,2013-08-10 02:10:00,
2013-08-09 22:11:00,72.1,72.2,29.74,NW,317,0.0,0.0,100,0.00,,,-99.99,1.0,HOBO +U30 +Weather +,2013-08-10 02:11:00,
2013-08-09 22:12:00,72.1,72.2,29.74,West,268,0.0,0.0,100,0.00,,,-99.99,1.0,HOBO +U30 +Weather +,2013-08-10 02:12:00,
2013-08-09 22:13:00,72.1,72.2,29.74,North,3,0.0,0.0,100,0.00,,,-99.99,1.0,HOBO +U30 +Weather +,2013-08-10 02:13:00,
2013-08-09 22:14:00,72.1,72.2,29.74,WNW,288,0.0,0.0,100,0.00,,,-99.99,1.0,HOBO +U30 +Weather +,2013-08-10 02:14:00,
2013-08-09 22:24:00,72.1,72.2,29.74,WNW,298,0.0,0.0,100,0.00,,,-99.99,1.0,HOBO +U30 +Weather +,2013-08-10 02:24:00,
2013-08-09 22:32:00,72.1,72.2,29.74,WNW,291,0.0,0.0,100,0.00,,,-99.99,1.0,HOBO +U30 +Weather +,2013-08-10 02:32:00,
2013-08-09 22:33:00,72.1,72.1,29.75,WNW,302,0.0,0.0,100,0.00,,,-99.99,1.0,HOBO +U30 +Weather +,2013-08-10 02:33:00,
2013-08-09 22:42:00,72.0,72.1,29.75,West,275,0.0,0.0,100,0.00,,,-99.99,1.0,HOBO +U30 +Weather +,2013-08-10 02:42:00,
2013-08-09 22:43:00,72.1,72.1,29.75,WNW,300,0.0,0.0,100,0.00,,,-99.99,1.0,HOBO +U30 +Weather +,2013-08-10 02:43:00,
2013-08-09 22:52:00,72.0,72.1,29.75,WNW,285,0.0,0.0,100,0.00,,,-99.99,1.0,HOBO +U30 +Weather +,2013-08-10 02:52:00,
2013-08-09 23:02:00,71.9,72.0,29.75,WNW,288,0.0,0.0,100,0.00,,,-99.99,1.0,HOBO +U30 +Weather +,2013-08-10 03:02:00,
2013-08-09 23:12:00,71.8,71.9,29.75,West,279,0.0,0.0,100,0.00,,,-99.99,1.0,HOBO +U30 +Weather +,2013-08-10 03:12:00,
2013-08-09 23:21:00,71.8,71.9,29.74,West,274,0.0,0.0,100,0.00,,,-99.99,1.0,HOBO +U30 +Weather +,2013-08-10 03:21:00,
2013-08-09 23:22:00,71.7,71.8,29.74,WNW,291,0.0,0.0,100,0.00,,,-99.99,1.0,HOBO +U30 +Weather +,2013-08-10 03:22:00,
2013-08-09 23:32:00,71.7,71.8,29.74,NNW,336,0.0,0.0,100,0.00,,,-99.99,1.0,HOBO +U30 +Weather +,2013-08-10 03:32:00,
2013-08-09 23:42:00,71.6,71.6,29.75,WNW,291,0.0,0.0,100,0.00,,,-99.99,1.0,HOBO +U30 +Weather +,2013-08-10 03:42:00,
2013-08-09 23:52:00,71.5,71.6,29.75,West,281,0.0,0.0,100,0.00,,,-99.99,1.0,HOBO +U30 +Weather +,2013-08-10 03:52:00,